Tracking 18957 objects as of 23-Jan-2018
HD Live streaming from Space Station
objects crossing your sky now

COSMOS 792

Track COSMOS 792 now!
10-day predictions
COSMOS 792 is classified as:


NORAD ID: 8608
Int'l Code: 1976-008B
Perigee: 1,443.3 km
Apogee: 1,496.8 km
Inclination: 74.1 °
Period: 115.2 minutes
Semi major axis: 7841 km
RCS: 0.6892 m2 (medium)
Launch date: January 28, 1976
Source: Commonwealth of Independent States (former USSR) (CIS)
Launch site: PLESETSK MISSILE AND SPACE COMPLEX (PKMTR)
aabbcc
Your satellite tracking list
Your tracking list is empty




NASA's NSSDC Master Catalog

Two Line Element Set (TLE):
1 08608U 76008B   18023.19795512 -.00000014  00000-0  75658-5 0  9998
2 08608  74.0554  97.0801 0034119  64.6709 354.5015 12.50374729916711
Source of the keplerian elements: AFSPC